Location: Buch
(49.7331°N, 12.1098°E)
Time: 09:30:32
(UTC+00:00)

Cosmos 2084 - Pass Details

Date: 12 May 2021
Orbit: 542 x 639 km, 62.8° (Epoch: 14 June)

Event Time Altitude Azimuth Distance (km) Brightness Sun altitude
Rises 20:09:34 0° 225° (SW) 2,714 6.8 -11.3°
Reaches altitude 10° 20:11:45 10° 226° (SW) 1,834 6.0 -11.6°
Maximum altitude 20:15:53 82° 314° (NW) 578 3.5 -12.0°
Drops below altitude 10° 20:20:09 10° 43° (NE) 1,898 6.1 -12.5°
Sets 20:22:27 0° 44° (NE) 2,818 7.0 -12.7°
